Powrót do katalogu

STARLINK-37186

AktywnyŁącznośćSSO
NORAD 68617·PAYLOAD·🇺🇸 United States

Wystrzelony Apr 5, 2026 z Vandenberg Space Force Base

Loading…

Następne Przeloty (najbliższe 24 godziny)

TLE

ŚwieżeSource: CelesTrak SupGP

Epoka: Sep 14, 2026, 22:44 UTC

1 68617C 26073R   26257.94770833  .00089855  00000+0  27899-2 0  2577
2 68617  97.2847  95.9872 0001669  95.0885 352.5661 15.33386072    11

Śledź STARLINK-37186 w czasie rzeczywistym z AllMySat

Download on the App Store